FW6065 Weather Reports


time (UTC)temp
C
wind
direction
speed
KPH
gust
KPH
rain 1hr
cm
rain 24hr
cm
rain mn
cm
humidity
%
barometer
mb
20260507212124 13 270 3.2 12.9 0.00 0.00 2.46 82 1000.2
20260507211617 13 225 6.4 17.7 0.00 0.00 2.46 80 1000.3
20260507211104 13 293 3.2 20.9 0.00 0.00 2.46 80 1000.4
20260507210554 13 315 6.4 20.9 0.00 0.00 2.46 80 1000.4
20260507210044 13 248 8.0 14.5 0.00 0.00 2.46 81 1000.3
20260507205533 13 338 6.4 17.7 0.00 0.00 2.46 80 1000.3
20260507205024 13 293 6.4 17.7 0.00 0.00 2.46 79 1000.1
20260507204513 13 338 3.2 17.7 0.00 0.00 2.46 79 999.8
20260507204003 13 338 6.4 24.1 0.00 0.00 2.46 78 1000.0
20260507203452 13 315 11.3 24.1 0.00 0.00 2.46 77 999.8
20260507202946 13 338 11.3 20.9 0.00 0.00 2.46 77 999.7
20260507202434 13 270 9.7 17.7 0.00 0.00 2.46 76 999.7
20260507201928 13 315 4.8 17.7 0.00 0.00 2.46 75 999.8
20260507201412 13 293 4.8 20.9 0.00 0.00 2.46 74 999.7
20260507200903 13 248 6.4 20.9 0.00 0.00 2.46 74 999.7
20260507195844 13 203 6.4 25.7 0.00 0.00 2.46 73 999.4
20260507195344 14 338 9.7 25.7 0.00 0.00 2.46 74 998.8
20260507194821 14 248 6.4 17.7 0.00 0.00 2.46 74 998.6
20260507193252 14 203 6.4 27.4 0.00 0.00 2.46 72 998.2
20260507192741 15 270 6.4 17.7 0.00 0.00 2.46 72 998.3
20260507191721 15 0 3.2 22.5 0.00 0.00 2.46 71 998.7
20260507191211 15 180 4.8 22.5 0.00 0.00 2.46 70 998.9
20260507190701 15 45 6.4 20.9 0.00 0.00 2.46 69 999.1
20260507190150 15 248 12.9 24.1 0.00 0.00 2.46 69 999.3
20260507185644 15 293 11.3 24.1 0.00 0.00 2.46 69 999.7
20260507184626 15 248 6.4 17.7 0.00 0.00 2.46 72 1000.3
20260507184110 15 270 6.4 20.9 0.00 0.00 2.46 72 1000.5
20260507182541 15 293 6.4 37.0 0.00 0.00 2.46 72 1000.5
20260507182027 15 248 9.7 37.0 0.00 0.00 2.46 71 1000.7
20260507181517 15 315 6.4 17.7 0.00 0.00 2.46 73 1001.1
20260507181011 15 338 11.3 22.5 0.00 0.00 2.46 73 1001.1
20260507180459 15 338 11.3 22.5 0.00 0.00 2.46 73 1001.2
20260507175440 15 293 6.4 25.7 0.00 0.00 2.46 73 1001.3
20260507174930 15 45 6.4 20.9 0.00 0.00 2.46 74 1001.5
20260507174419 15 68 12.9 20.9 0.00 0.00 2.46 74 1001.5
20260507173909 15 338 4.8 22.5 0.00 0.00 2.46 76 1001.1
20260507173359 15 225 6.4 22.5 0.00 0.00 2.46 74 1001.3
20260507172342 15 315 4.8 12.9 0.00 0.00 2.46 73 1000.1
20260507171829 15 203 6.4 14.5 0.00 0.00 2.46 73 999.9
20260507171318 15 225 3.2 14.5 0.00 0.00 2.46 74 1000.0
20260507170808 15 180 4.8 14.5 0.00 0.00 2.46 73 999.9
20260507170259 15 315 3.2 14.5 0.00 0.00 2.46 74 999.9
20260507165748 15 203 6.4 17.7 0.00 0.00 2.46 73 1000.0
20260507165239 15 293 4.8 20.9 0.00 0.00 2.46 73 1000.1
20260507164728 15 0 3.2 20.9 0.00 0.00 2.46 74 1000.3
20260507164218 15 293 6.4 14.5 0.00 0.00 2.46 74 1000.3
20260507163711 15 158 3.2 17.7 0.00 0.00 2.46 76 1001.0
20260507163158 15 338 6.4 17.7 0.00 0.00 2.46 75 1001.0
20260507162648 15 248 3.2 14.5 0.00 0.00 2.46 75 1001.2
20260507162139 15 270 6.4 12.9 0.00 0.00 2.46 75 1001.4
20260507161627 15 270 6.4 12.9 0.00 0.00 2.46 75 1001.4
20260507161117 15 248 6.4 12.9 0.00 0.00 2.46 75 1001.2
20260507160607 15 248 4.8 17.7 0.00 0.00 2.46 76 1000.8
20260507160058 15 203 6.4 17.7 0.00 0.00 2.46 75 1000.5
20260507155547 15 225 4.8 14.5 0.00 0.00 2.46 76 1000.2
20260507155043 15 248 3.2 14.5 0.00 0.00 2.46 77 1000.5
20260507154528 14 315 6.4 17.7 0.00 0.00 2.46 77 1000.5
20260507154016 14 338 6.4 17.7 0.00 0.00 2.46 76 1000.2
20260507152956 15 248 3.2 12.9 0.00 0.00 2.46 78 1000.0
20260507152447 15 158 4.8 14.5 0.00 0.00 2.46 77 1000.5
20260507151936 15 225 6.4 14.5 0.00 0.00 2.46 77 1000.7
20260507151426 15 338 6.4 20.9 0.00 0.00 2.46 76 1000.5
20260507150408 15 248 4.8 0.0 0.00 0.00 2.46 75 1000.5
20260507150152 15 180 6.4 0.0 0.00 0.00 2.46 75 1000.7
20260507145720 15 203 6.4 20.9 0.00 0.00 2.46 74 1000.8
20260507145211 15 248 6.4 20.9 0.00 0.00 2.46 75 1000.8
20260507144703 15 225 6.4 14.5 0.00 0.00 2.46 76 1000.5
20260507144151 15 203 3.2 20.9 0.00 0.00 2.46 77 1000.6
20260507143641 15 158 4.8 22.5 0.00 0.00 2.46 77 1000.6
20260507143130 15 338 9.7 22.5 0.00 0.00 2.46 80 1000.5
20260507142620 15 338 6.4 17.7 0.00 0.00 2.46 83 1000.7
20260507142110 15 270 4.8 17.7 0.00 0.00 2.46 85 1000.5
20260507141600 15 315 8.0 17.7 0.00 0.00 2.46 86 1000.4
20260507140545 15 293 3.2 12.9 0.00 0.00 2.46 88 1000.0
20260507135520 16 158 1.6 9.7 0.00 0.00 2.46 87 999.2
20260507135010 16 248 3.2 9.7 0.00 0.00 2.46 87 999.6
20260507134459 16 225 4.8 9.7 0.00 0.00 2.46 87 999.9
20260507133949 16 270 1.6 11.3 0.00 0.00 2.46 88 999.9
20260507133438 16 158 1.6 11.3 0.00 0.00 2.46 87 1000.0
20260507132928 16 270 4.8 9.7 0.00 0.00 2.46 87 1000.6
20260507132421 16 203 3.2 11.3 0.00 0.00 2.46 86 1000.9
20260507131909 16 203 3.2 11.3 0.00 0.00 2.46 87 1001.3
20260507131358 16 338 3.2 3.2 0.00 0.00 2.46 88 1001.2
20260507130848 16 203 0.0 3.2 0.00 0.00 2.46 87 1000.9
20260507130404 15 225 3.2 3.2 0.00 0.00 2.46 88 1000.9
20260507125828 15 338 1.6 3.2 0.00 0.00 2.46 90 1001.4
20260507124809 15 338 3.2 9.7 0.00 0.00 2.46 89 1001.2
20260507124257 15 338 3.2 12.9 0.00 0.00 2.46 89 1001.0
20260507123752 15 315 3.2 12.9 0.00 0.00 2.46 89 1000.0
20260507123237 15 68 3.2 12.9 0.00 0.00 2.46 88 999.4
20260507122217 15 248 3.2 12.9 0.00 0.00 2.46 88 999.7
20260507121708 15 225 3.2 11.3 0.00 0.00 2.46 88 999.6
20260507121157 15 248 6.4 11.3 0.00 0.00 2.46 88 999.9
20260507115626 15 248 6.4 14.5 0.00 0.00 2.46 88 1000.2
20260507115123 15 248 4.8 17.7 0.00 0.00 2.46 89 999.8
20260507114606 15 248 6.4 17.7 0.00 0.00 2.46 88 999.2
20260507114059 15 293 6.4 20.9 0.00 0.00 2.46 90 998.5
20260507113546 15 180 6.4 20.9 0.00 0.00 2.46 89 998.5
20260507113038 15 225 6.4 17.7 0.00 0.00 2.46 89 998.9
20260507112526 15 248 4.8 17.7 0.00 0.00 2.46 89 1000.0
20260507112018 15 225 3.2 12.9 0.00 0.00 2.46 90 1000.1
20260507111515 15 225 0.0 12.9 0.00 0.00 2.46 90 1000.1
20260507110956 15 315 3.2 11.3 0.00 0.00 2.46 90 999.8
20260507105935 15 248 3.2 11.3 0.00 0.00 2.46 92 998.6
20260507105425 15 225 6.4 11.3 0.00 0.00 2.46 92 998.3
20260507104915 15 248 1.6 9.7 0.00 0.00 2.46 92 998.7
20260507104405 15 248 1.6 6.4 0.00 0.00 2.46 93 998.4
20260507103855 15 270 0.0 6.4 0.00 0.00 2.46 93 998.7
20260507103345 16 315 3.2 12.9 0.00 0.00 2.46 93 998.8
20260507102835 16 180 0.0 12.9 0.00 0.00 2.46 93 998.5
20260507102324 16 338 4.8 11.3 0.00 0.00 2.46 93 998.9
20260507101818 16 270 3.2 9.7 0.00 0.00 2.46 93 998.9
20260507101305 16 293 3.2 9.7 0.00 0.00 2.46 93 999.0
20260507100755 16 315 3.2 14.5 0.00 0.00 2.46 93 999.1
20260507100245 16 315 6.4 17.7 0.00 0.00 2.46 93 998.7
20260507095734 16 225 4.8 17.7 0.00 0.00 2.46 94 997.9
20260507095225 16 248 8.0 14.5 0.00 0.00 2.46 95 997.3
20260507094714 16 338 6.4 14.5 0.00 0.00 2.46 95 997.4
20260507094204 16 315 3.2 14.5 0.00 0.00 2.46 95 997.5
20260507093653 16 180 3.2 14.5 0.00 0.00 2.46 95 998.0
20260507093146 16 158 3.2 17.7 0.00 0.00 2.46 96 998.6
20260507092123 16 248 4.8 12.9 0.00 0.00 2.46 96 998.2
20260507091614 16 225 3.2 14.5 0.00 0.00 2.46 96 998.5
20260507090553 16 225 3.2 6.4 0.00 0.00 2.46 96 999.1
20260507090043 16 293 3.2 6.4 0.00 0.00 2.46 96 999.1
20260507085535 16 293 3.2 3.2 0.00 0.00 2.46 96 998.7
20260507085022 16 225 0.0 3.2 0.00 0.00 2.46 96 998.2
20260507084516 16 180 0.0 9.7 0.00 0.00 2.46 95 997.9
20260507084002 16 203 1.6 14.5 0.00 0.00 2.46 95 997.9
20260507083452 16 315 6.4 14.5 0.00 0.00 2.46 95 998.0
20260507082942 16 248 4.8 12.9 0.00 0.00 2.46 95 998.2
20260507081922 17 135 4.8 17.7 0.00 0.00 2.46 95 998.2
20260507081412 17 225 6.4 17.7 0.00 0.00 2.46 95 998.8
20260507080902 17 203 3.2 9.7 0.00 0.00 2.46 95 998.9
20260507080352 17 270 3.2 9.7 0.00 0.00 2.46 95 999.4
20260507075844 17 270 3.2 9.7 0.00 0.00 2.46 95 999.7
20260507074850 17 225 6.4 11.3 0.00 2.46 2.46 96 999.0
20260507073830 17 270 3.2 11.3 0.00 2.46 2.46 96 998.9
20260507073319 17 248 4.8 6.4 0.00 2.46 2.46 96 998.3
20260507072809 17 270 0.0 3.2 0.00 2.46 2.46 96 997.9
20260507072306 17 270 0.0 3.2 0.00 2.46 2.46 96 997.8
20260507071749 17 270 0.0 3.2 0.00 2.46 2.46 95 998.1
20260507070729 17 315 0.0 3.2 0.03 2.46 2.46 95 998.4
20260507070219 17 68 1.6 11.3 0.05 2.46 2.46 94 998.1
20260507065709 17 45 0.0 12.9 0.13 2.46 2.46 94 997.8
20260507064648 17 68 4.8 12.9 0.18 2.46 2.46 94 997.5
20260507063631 17 68 1.6 9.7 0.23 2.46 2.46 95 998.1
20260507063118 17 68 3.2 9.7 0.28 2.46 2.46 95 998.3
20260507062058 17 113 4.8 14.5 0.30 2.46 2.46 96 997.0
20260507061548 17 90 3.2 11.3 0.30 2.46 2.46 96 997.8
20260507061037 17 45 3.2 11.3 0.28 2.44 2.44 97 998.6
20260507060527 17 158 3.2 6.4 0.23 2.39 2.39 97 998.7
20260507060017 18 90 0.0 6.4 0.23 2.36 2.36 96 998.7
20260507055511 18 113 1.6 6.4 0.20 2.34 2.34 96 999.0
20260507055001 18 158 3.2 6.4 0.20 2.31 2.31 96 1000.0
20260507054447 18 135 3.2 6.4 0.18 2.29 2.29 96 1000.7
20260507053937 18 135 1.6 11.3 0.18 2.26 2.26 96 1001.2
20260507053427 18 315 1.6 14.5 0.18 2.21 2.21 96 1001.4
20260507052917 18 248 6.4 14.5 0.20 2.18 2.18 96 1001.0
20260507052407 18 225 4.8 14.5 0.28 2.18 2.18 96 1000.3
20260507051857 18 270 3.2 11.3 0.36 2.16 2.16 96 1000.7
20260507051346 18 270 4.8 12.9 0.36 2.16 2.16 96 999.7
20260507050836 18 248 3.2 12.9 0.46 2.16 2.16 96 998.5
20260507050329 18 203 3.2 11.3 0.48 2.16 2.16 95 998.7
20260507045817 18 180 6.4 9.7 0.48 2.13 2.13 96 998.6
20260507045306 18 225 0.0 6.4 0.86 2.13 2.13 95 999.5
20260507044756 18 225 3.2 11.3 1.45 2.11 2.11 95 999.5
20260507044246 18 225 3.2 17.7 1.78 2.06 2.06 95 999.3
20260507043735 18 293 6.4 17.7 1.85 2.06 2.06 95 999.1
20260507043226 19 158 3.2 11.3 1.88 2.03 2.03 96 998.4
20260507042715 19 203 3.2 12.9 1.88 1.96 1.96 96 999.5
20260507042206 19 270 4.8 12.9 1.85 1.85 1.85 96 1000.0
20260507041658 19 248 4.8 11.3 1.80 1.80 1.80 96 998.7
20260507041145 20 293 6.4 11.3 1.78 1.78 1.78 96 999.9
20260507040634 20 315 3.2 12.9 1.70 1.70 1.70 96 999.5
20260507040122 20 90 3.2 17.7 1.65 1.65 1.65 96 999.1
20260507035615 20 135 6.4 22.5 1.55 1.55 1.63 96 999.0
20260507034555 20 180 6.4 17.7 0.43 0.43 0.46 95 998.2
20260507033535 21 158 6.4 11.3 0.18 0.18 0.20 93 998.1
20260507033027 21 248 6.4 27.4 0.15 0.15 0.15 92 997.9
20260507032514 22 248 9.7 27.4 0.00 0.00 0.03 88 998.3
20260507032005 23 225 9.7 25.7 0.00 0.00 0.00 79 998.4
20260507031454 25 293 3.2 25.7 0.00 0.00 0.00 79 997.4
20260507030943 25 0 12.9 25.7 0.00 0.00 0.00 79 996.0
20260507030434 25 0 8.0 24.1 0.00 0.00 0.00 79 996.2
20260507025923 25 315 12.9 17.7 0.00 0.00 0.18 79 996.4
20260507025413 25 338 8.0 17.7 0.00 0.00 0.18 79 996.6
20260507024903 25 338 8.0 20.9 0.00 0.00 0.18 78 996.6
20260507024411 25 338 9.7 20.9 0.00 0.00 0.18 78 996.7
20260507023843 25 315 9.7 20.9 0.00 0.00 0.18 77 996.8
20260507023333 26 338 8.0 22.5 0.00 0.00 0.18 77 997.2
20260507022823 26 23 11.3 22.5 0.00 0.00 0.18 77 997.1
20260507022313 25 23 11.3 22.5 0.00 0.00 0.18 77 996.8
20260507021803 26 23 8.0 22.5 0.00 0.00 0.18 77 997.1
20260507021255 25 338 12.9 17.7 0.00 0.00 0.18 77 997.3
20260507020742 25 293 11.3 20.9 0.00 0.00 0.18 77 997.2
20260507015725 25 315 9.7 17.7 0.00 0.00 0.18 77 997.7
20260507014702 26 0 8.0 17.7 0.00 0.00 0.18 76 998.0
20260507014151 26 315 9.7 17.7 0.00 0.00 0.18 77 998.2
20260507013642 26 23 6.4 27.4 0.00 0.00 0.18 76 998.0
20260507013132 26 338 11.3 27.4 0.00 0.00 0.18 76 997.9
20260507012111 26 338 11.3 29.0 0.00 0.00 0.18 76 998.0
20260507011602 26 0 17.7 27.4 0.00 0.00 0.18 75 998.1
20260507011054 26 338 12.9 27.4 0.00 0.00 0.18 75 998.2
20260507010544 26 338 19.3 27.4 0.00 0.00 0.18 75 998.0
20260507010031 26 0 17.7 27.4 0.00 0.00 0.18 75 997.9
20260507005521 26 315 12.9 22.5 0.00 0.00 0.18 75 997.7
20260507005010 26 338 8.0 24.1 0.00 0.00 0.18 76 998.2
20260507004500 26 315 12.9 24.1 0.00 0.00 0.18 75 998.2
20260507003440 26 315 11.3 25.7 0.00 0.00 0.18 75 998.2
20260507002423 26 315 9.7 20.9 0.00 0.00 0.18 75 998.4
20260507001910 26 23 6.4 20.9 0.00 0.00 0.18 76 998.3
20260507001405 26 338 8.0 20.9 0.00 0.00 0.18 76 998.2
20260507000849 26 338 12.9 24.1 0.00 0.00 0.18 76 998.1
20260507000343 26 338 9.7 24.1 0.00 0.00 0.18 76 997.8
20260506235829 26 0 8.0 17.7 0.00 0.00 0.18 77 997.6
20260506235319 26 338 8.0 17.7 0.00 0.00 0.18 77 997.6
20260506234809 25 338 9.7 17.7 0.00 0.00 0.18 78 997.9
20260506234259 25 0 6.4 14.5 0.00 0.00 0.18 79 997.9
20260506233753 25 315 6.4 12.9 0.00 0.00 0.18 81 998.2
20260506233239 25 338 3.2 9.7 0.00 0.00 0.18 82 997.8
20260506232728 25 0 4.8 9.7 0.00 0.00 0.18 82 997.6
20260506231709 25 315 4.8 9.7 0.00 0.00 0.18 83 997.4
20260506231158 25 45 3.2 9.7 0.00 0.00 0.18 82 997.9
20260506230648 25 0 4.8 9.7 0.00 0.00 0.18 82 998.1
20260506230138 25 0 3.2 9.7 0.00 0.00 0.18 81 998.2
20260506225628 25 0 3.2 9.7 0.00 0.00 0.18 81 998.1
20260506225121 25 0 3.2 6.4 0.00 0.00 0.18 81 998.0
20260506223548 25 113 0.0 6.4 0.00 0.00 0.18 84 998.6
20260506223041 25 315 3.2 6.4 0.00 0.00 0.18 83 998.4
20260506222528 25 338 1.6 6.4 0.00 0.00 0.18 83 998.5
20260506222017 25 23 3.2 6.4 0.00 0.00 0.18 84 998.7
20260506221508 25 0 3.2 6.4 0.00 0.00 0.18 84 998.6
20260506220957 25 0 3.2 11.3 0.00 0.00 0.18 84 998.9
20260506215937 25 23 1.6 11.3 0.00 0.00 0.18 84 999.1
20260506215427 25 45 3.2 6.4 0.00 0.00 0.18 84 999.0
20260506214917 25 23 3.2 9.7 0.00 0.00 0.18 84 999.2
20260506214407 25 0 3.2 11.3 0.00 0.00 0.18 84 999.1
20260506213858 25 68 4.8 11.3 0.00 0.00 0.18 84 999.4
20260506213346 25 45 6.4 11.3 0.00 0.00 0.18 83 999.5
20260506212836 25 68 3.2 6.4 0.00 0.00 0.18 83 999.8